User: anonymous   Login
Location: Nebraska Star Party
(42.6000°N, 100.8833°W)
Time: 10:28:16
(UTC-05:00)
Language:

Iridium 37 - Orbit

View from above orbital plane
View from above orbital plane
View from above satellite
View from above satellite

Ground track
Ground track

The orbit data is extracted from the following two-line orbital elements,

1 24968U 97056D   18145.92597408  .13759171 -15624-5  28462-3 0  9992
2 24968  86.3531 163.1800 0013823  29.0123 331.5952 16.45904624 83291
Epoch (UTC): 25 May 2018 22:13:24
Eccentricity: 0.0013823
inclination: 86.3531°
perigee height: 141 km
apogee height: 159 km
right ascension of ascending node: 163.1800°
argument of perigee: 29.0123°
revolutions per day: 16.45904624
mean anomaly at epoch: 331.5952°
orbit number at epoch: 8329

The dashed part of the orbit path shows where the satellite is in the earth's shadow,  

DLR